Location: Cheb
(50.0670°N, 12.3670°E)
Time: 20:42:04
(UTC+02:00)

ISS - Pass Details

Date: 24 March 2019
Orbit: 408 x 410 km, 51.6° (Epoch: 25 April)

Event Time Altitude Azimuth Distance (km) Brightness Sun altitude
Rises 21:03:03 0° 260° (W) 2,332 0.7 -23.9°
Reaches altitude 10° 21:05:08 10° 262° (W) 1,472 -0.4 -24.2°
Enters shadow 21:06:51 28° 266° (W) 800 -1.9 -24.4°
